Regional Weather Roundup
Issued by NWS

Home | Current Version | Previous Version | Graphics & Text | Print | Product List | Glossary On
Versions: 1 2 3 4 5 6 7 8 9 10 11 12 13 14 15 16 17 18 19 20 21 22 23 24 25 26 27 28 29 30 31 32 33 34 35 36 37 38 39 40 41 42 43 44 45 46 47 48 49 50
000
ASUS45 KBOI 300110
RWRID

IDAHO REGIONAL WEATHER ROUNDUP
NATIONAL WEATHER SERVICE BOISE ID
700 PM MDT MON JUN 29 2015

NOTE: "FAIR" INDICATES FEW OR NO CLOUDS BELOW 12000 FEET
WITH NO SIGNIFICANT WEATHER AND/OR OBSTRUCTIONS TO VISIBILITY

IDZ012-014-300200-
SOUTHWEST IDAHO


CITY           SKY/WX    TMP DP  RH WIND       PRES   REMARKS
BOISE          PTSUNNY   99  51  19 NW12      29.87F HX  96
CALDWELL       PTSUNNY   97  61  30 N6        29.85F HX  97
$$

IDZ016-017-300200-
SOUTHCENTRAL IDAHO


CITY           SKY/WX    TMP DP  RH WIND       PRES   REMARKS
BURLEY         LGT RAIN  92  40  16 NW30G44   29.94F
JEROME         PTSUNNY   88  58  36 S7        30.00R
TWIN FALLS     CLOUDY    95  45  17 SE8       29.97S HX  91
$$

IDZ019>023-300200-
SOUTHEAST IDAHO


CITY           SKY/WX    TMP DP  RH WIND       PRES   REMARKS
IDAHO FALLS    CLOUDY    79  55  43 N18G31    30.07R
POCATELLO      PTSUNNY   90  52  27 SW20G35   30.02R THUNDER
REXBURG        CLOUDY    82  50  32 N13G23    30.11R
$$

IDZ006-010-011-018-031-032-300200-
CENTRAL IDAHO MOUNTAINS


CITY           SKY/WX    TMP DP  RH WIND       PRES   REMARKS
MCCALL         PTSUNNY   90  46  21 VRB7      30.05F
HAILEY         MOSUNNY   93  48  21 W8        30.07F HX  90
STANLEY          N/A     88  42  20 W10       30.18S
SALMON         PTSUNNY   82  63  51 NW10      29.98R
CHALLIS        PTSUNNY   77  62  59 SW6       30.07F
$$

IDZ002-004-006-007-026-300200-
NORTHERN IDAHO


CITY           SKY/WX    TMP DP  RH WIND       PRES   REMARKS
LEWISTON       MOSUNNY   99  56  23 NW9       29.85F HX  97
LOWELL           N/A     90  64  42 CALM      29.81R HX  91
COEUR D`ALENE  MOSUNNY   91  59  33 NW8       29.90F HX  90
MULLAN PASS    PTSUNNY   71  56  58 CALM      30.20F
$$



USA.gov is the U.S. government's official web portal to all federal, state and local government web resources and services.